| time (UTC) | temp F | wind direction | speed MPH | gust MPH | rain 1hr in | rain 24hr in | rain mn in | humidity % | barometer mb |
| 20260503220208 | 54 | 203 | 6.0 | 8.0 | 0.00 | 0.00 | 0.00 | 37 | 1007.6 |
| 20260503215705 | 55 | 199 | 1.0 | 2.0 | 0.00 | 0.00 | 0.00 | 38 | 1007.6 |
| 20260503215202 | 55 | 179 | 2.0 | 4.0 | 0.00 | 0.00 | 0.00 | 38 | 1007.3 |
| 20260503214700 | 55 | 228 | 6.0 | 8.0 | 0.00 | 0.00 | 0.00 | 36 | 1007.4 |
| 20260503214155 | 56 | 352 | 4.0 | 6.0 | 0.00 | 0.00 | 0.00 | 35 | 1007.4 |
| 20260503213649 | 57 | 261 | 7.0 | 9.0 | 0.00 | 0.00 | 0.00 | 36 | 1007.2 |
| 20260503213146 | 56 | 268 | 6.0 | 8.0 | 0.00 | 0.00 | 0.00 | 35 | 1007.4 |
| 20260503212643 | 55 | 248 | 3.0 | 4.0 | 0.00 | 0.00 | 0.00 | 35 | 1007.3 |
| 20260503212140 | 56 | 237 | 4.0 | 4.0 | 0.00 | 0.00 | 0.00 | 35 | 1007.2 |
| 20260503211638 | 56 | 203 | 2.0 | 3.0 | 0.00 | 0.00 | 0.00 | 37 | 1007.3 |
| 20260503211133 | 57 | 222 | 6.0 | 7.0 | 0.00 | 0.00 | 0.00 | 33 | 1007.5 |
| 20260503210630 | 56 | 268 | 2.0 | 3.0 | 0.00 | 0.00 | 0.00 | 35 | 1007.0 |
| 20260503210126 | 56 | 221 | 2.0 | 3.0 | 0.00 | 0.00 | 0.00 | 35 | 1007.3 |
| 20260503205622 | 56 | 249 | 4.0 | 6.0 | 0.00 | 0.00 | 0.00 | 35 | 1007.2 |
| 20260503205119 | 56 | 199 | 2.0 | 3.0 | 0.00 | 0.00 | 0.00 | 35 | 1007.2 |
| 20260503204616 | 55 | 183 | 4.0 | 4.0 | 0.00 | 0.00 | 0.00 | 34 | 1007.3 |
| 20260503204113 | 57 | 216 | 7.0 | 9.0 | 0.00 | 0.00 | 0.00 | 34 | 1007.4 |
| 20260503203610 | 56 | 241 | 3.0 | 6.0 | 0.00 | 0.00 | 0.00 | 35 | 1007.2 |
| 20260503203107 | 58 | 239 | 4.0 | 6.0 | 0.00 | 0.00 | 0.00 | 34 | 1007.0 |
| 20260503202605 | 57 | 261 | 5.0 | 6.0 | 0.00 | 0.00 | 0.00 | 34 | 1007.2 |
| 20260503202103 | 57 | 61 | 4.0 | 4.0 | 0.00 | 0.00 | 0.00 | 33 | 1007.4 |
| 20260503201600 | 57 | 212 | 4.0 | 6.0 | 0.00 | 0.00 | 0.00 | 34 | 1007.5 |
| 20260503201057 | 55 | 62 | 4.0 | 7.0 | 0.00 | 0.00 | 0.00 | 34 | 1007.9 |
| 20260503200548 | 55 | 278 | 2.0 | 4.0 | 0.00 | 0.00 | 0.00 | 37 | 1007.5 |
| 20260503200044 | 56 | 313 | 6.0 | 8.0 | 0.00 | 0.00 | 0.00 | 33 | 1007.6 |
| 20260503195542 | 57 | 239 | 9.0 | 10.0 | 0.00 | 0.00 | 0.00 | 32 | 1007.5 |
| 20260503195038 | 57 | 277 | 4.0 | 7.0 | 0.00 | 0.00 | 0.00 | 35 | 1007.5 |
| 20260503194536 | 56 | 188 | 8.0 | 10.0 | 0.00 | 0.00 | 0.00 | 35 | 1007.6 |
| 20260503194035 | 56 | 239 | 2.0 | 3.0 | 0.00 | 0.00 | 0.00 | 36 | 1007.9 |
| 20260503193532 | 57 | 260 | 4.0 | 4.0 | 0.00 | 0.00 | 0.00 | 32 | 1007.6 |
| 20260503193027 | 56 | 204 | 9.0 | 15.0 | 0.00 | 0.00 | 0.00 | 34 | 1007.7 |
| 20260503192524 | 55 | 174 | 3.0 | 4.0 | 0.00 | 0.00 | 0.00 | 34 | 1007.8 |
| 20260503192020 | 55 | 211 | 5.0 | 8.0 | 0.00 | 0.00 | 0.00 | 35 | 1007.9 |
| 20260503191517 | 52 | 58 | 2.0 | 2.0 | 0.00 | 0.00 | 0.00 | 39 | 1007.8 |
| 20260503191014 | 54 | 212 | 4.0 | 4.0 | 0.00 | 0.00 | 0.00 | 38 | 1008.2 |
| 20260503190511 | 55 | 250 | 4.0 | 6.0 | 0.00 | 0.00 | 0.00 | 34 | 1008.1 |
| 20260503190008 | 55 | 233 | 9.0 | 13.0 | 0.00 | 0.00 | 0.00 | 33 | 1007.9 |
| 20260503185503 | 55 | 276 | 3.0 | 4.0 | 0.00 | 0.00 | 0.00 | 36 | 1008.1 |
| 20260503184958 | 54 | 269 | 4.0 | 6.0 | 0.00 | 0.00 | 0.00 | 35 | 1008.1 |
| 20260503184454 | 56 | 235 | 5.0 | 8.0 | 0.00 | 0.00 | 0.00 | 33 | 1008.2 |
| 20260503183951 | 55 | 15 | 4.0 | 6.0 | 0.00 | 0.00 | 0.00 | 37 | 1008.1 |
| 20260503183448 | 54 | 266 | 5.0 | 8.0 | 0.00 | 0.00 | 0.00 | 34 | 1008.3 |
| 20260503182944 | 53 | 223 | 5.0 | 7.0 | 0.00 | 0.00 | 0.00 | 37 | 1007.9 |
| 20260503182443 | 53 | 214 | 1.0 | 2.0 | 0.00 | 0.00 | 0.00 | 35 | 1008.1 |
| 20260503181940 | 53 | 211 | 1.0 | 2.0 | 0.00 | 0.00 | 0.00 | 38 | 1008.5 |
| 20260503181437 | 53 | 61 | 3.0 | 4.0 | 0.00 | 0.00 | 0.00 | 37 | 1008.5 |
| 20260503180933 | 52 | 192 | 1.0 | 1.0 | 0.00 | 0.00 | 0.00 | 42 | 1008.5 |
| 20260503180432 | 52 | 47 | 2.0 | 3.0 | 0.00 | 0.00 | 0.00 | 36 | 1008.4 |
| 20260503175928 | 51 | 210 | 8.0 | 9.0 | 0.00 | 0.00 | 0.00 | 37 | 1008.6 |
| 20260503175426 | 50 | 226 | 5.0 | 6.0 | 0.00 | 0.00 | 0.00 | 40 | 1008.5 |
| 20260503174922 | 52 | 243 | 3.0 | 3.0 | 0.00 | 0.00 | 0.00 | 41 | 1008.5 |
| 20260503174420 | 54 | 199 | 1.0 | 1.0 | 0.00 | 0.00 | 0.00 | 37 | 1008.5 |
| 20260503173914 | 52 | 126 | 1.0 | 2.0 | 0.00 | 0.00 | 0.00 | 46 | 1008.5 |
| 20260503173411 | 49 | 318 | 1.0 | 2.0 | 0.00 | 0.00 | 0.00 | 39 | 1008.5 |
| 20260503172908 | 50 | 242 | 3.0 | 4.0 | 0.00 | 0.00 | 0.00 | 40 | 1008.9 |
| 20260503172406 | 51 | 327 | 4.0 | 6.0 | 0.00 | 0.00 | 0.00 | 39 | 1008.8 |
| 20260503171901 | 50 | 234 | 4.0 | 6.0 | 0.00 | 0.00 | 0.00 | 42 | 1008.7 |
| 20260503171358 | 50 | 194 | 1.0 | 2.0 | 0.00 | 0.00 | 0.00 | 44 | 1008.6 |
| 20260503170856 | 49 | 53 | 2.0 | 2.0 | 0.00 | 0.00 | 0.00 | 46 | 1008.6 |
| 20260503170352 | 50 | 152 | 2.0 | 2.0 | 0.00 | 0.00 | 0.00 | 38 | 1008.9 |
| 20260503150744 | 48 | 183 | 1.0 | 2.0 | 0.00 | 0.00 | 0.00 | 50 | 1009.6 |
| 20260503150240 | 44 | 131 | 2.0 | 3.0 | 0.00 | 0.00 | 0.00 | 54 | 1009.6 |
| 20260503140205 | 45 | 60 | 2.0 | 2.0 | 0.00 | 0.00 | 0.00 | 62 | 1009.6 |
| 20260503131134 | 43 | 155 | 2.0 | 4.0 | 0.00 | 0.00 | 0.00 | 63 | 1009.9 |
| 20260503130632 | 42 | 73 | 1.0 | 2.0 | 0.00 | 0.00 | 0.00 | 66 | 1009.8 |
| 20260503130129 | 42 | 123 | 2.0 | 2.0 | 0.00 | 0.00 | 0.00 | 67 | 1009.7 |
| 20260503110522 | 37 | 207 | 2.0 | 2.0 | 0.00 | 0.00 | 0.00 | 81 | 1009.4 |
| 20260503090408 | 37 | 212 | 1.0 | 1.0 | 0.00 | 0.00 | 0.00 | 81 | 1008.8 |
| 20260503081335 | 37 | 200 | 1.0 | 1.0 | 0.00 | 0.00 | 0.00 | 77 | 1008.6 |
| 20260503080832 | 37 | 175 | 0.0 | 1.0 | 0.00 | 0.00 | 0.00 | 77 | 1008.6 |
| 20260503080329 | 37 | 175 | 1.0 | 1.0 | 0.00 | 0.00 | 0.00 | 77 | 1008.7 |
| 20260503072759 | 38 | 192 | 0.0 | 0.0 | 0.00 | 0.00 | 0.00 | 76 | 1008.5 |
| 20260503072256 | 38 | 191 | 0.0 | 1.0 | 0.00 | 0.00 | 0.00 | 74 | 1008.7 |
| 20260503071752 | 38 | 160 | 2.0 | 2.0 | 0.00 | 0.00 | 0.00 | 74 | 1008.6 |
| 20260503071250 | 38 | 191 | 1.0 | 1.0 | 0.00 | 0.00 | 0.00 | 74 | 1008.4 |
| 20260503070746 | 38 | 191 | 1.0 | 1.0 | 0.00 | 0.00 | 0.00 | 74 | 1008.6 |
| 20260503070244 | 38 | 200 | 2.0 | 2.0 | 0.00 | 0.00 | 0.00 | 72 | 1008.7 |
| 20260503060209 | 40 | 197 | 1.0 | 2.0 | 0.00 | 0.00 | 0.00 | 70 | 1008.9 |
| 20260503054656 | 40 | 189 | 2.0 | 2.0 | 0.00 | 0.00 | 0.00 | 68 | 1008.9 |
| 20260503054153 | 40 | 139 | 1.0 | 1.0 | 0.00 | 0.00 | 0.00 | 68 | 1009.0 |
| 20260503053651 | 40 | 169 | 1.0 | 1.0 | 0.00 | 0.00 | 0.00 | 68 | 1008.9 |
| 20260503053149 | 40 | 249 | 1.0 | 2.0 | 0.00 | 0.00 | 0.00 | 68 | 1009.1 |
| 20260503052645 | 40 | 189 | 2.0 | 2.0 | 0.00 | 0.00 | 0.00 | 68 | 1009.0 |
| 20260503052142 | 41 | 188 | 0.0 | 0.0 | 0.00 | 0.00 | 0.00 | 68 | 1008.9 |
| 20260503051637 | 41 | 189 | 2.0 | 3.0 | 0.00 | 0.00 | 0.00 | 67 | 1009.1 |
| 20260503051135 | 41 | 188 | 1.0 | 1.0 | 0.00 | 0.00 | 0.00 | 67 | 1009.2 |
| 20260503050632 | 41 | 183 | 1.0 | 1.0 | 0.00 | 0.00 | 0.00 | 65 | 1009.3 |
| 20260503050128 | 41 | 193 | 1.0 | 1.0 | 0.00 | 0.00 | 0.00 | 66 | 1009.1 |
| 20260503045626 | 41 | 168 | 1.0 | 2.0 | 0.00 | 0.00 | 0.00 | 67 | 1009.3 |
| 20260503045123 | 41 | 185 | 1.0 | 1.0 | 0.00 | 0.00 | 0.00 | 65 | 1009.4 |
| 20260503044619 | 41 | 152 | 0.0 | 1.0 | 0.00 | 0.00 | 0.00 | 65 | 1009.3 |
| 20260503044117 | 41 | 139 | 0.0 | 0.0 | 0.00 | 0.00 | 0.00 | 65 | 1009.4 |
| 20260503043613 | 41 | 170 | 1.0 | 1.0 | 0.00 | 0.00 | 0.00 | 66 | 1009.4 |
| 20260503043110 | 41 | 125 | 1.0 | 1.0 | 0.00 | 0.00 | 0.00 | 66 | 1009.4 |
| 20260503042607 | 41 | 176 | 1.0 | 2.0 | 0.00 | 0.00 | 0.00 | 64 | 1009.3 |
| 20260503042103 | 41 | 210 | 0.0 | 0.0 | 0.00 | 0.00 | 0.00 | 66 | 1009.5 |
| 20260503041559 | 41 | 211 | 1.0 | 2.0 | 0.00 | 0.00 | 0.00 | 65 | 1009.6 |
| 20260503041058 | 42 | 212 | 1.0 | 1.0 | 0.00 | 0.00 | 0.00 | 64 | 1009.4 |
| 20260503040554 | 42 | 200 | 2.0 | 2.0 | 0.00 | 0.00 | 0.00 | 64 | 1009.4 |
| 20260503040052 | 42 | 200 | 1.0 | 1.0 | 0.00 | 0.24 | 0.24 | 64 | 1009.3 |
| 20260503035548 | 42 | 192 | 1.0 | 2.0 | 0.00 | 0.24 | 0.24 | 65 | 1009.4 |
| 20260503035046 | 42 | 192 | 0.0 | 0.0 | 0.00 | 0.24 | 0.24 | 68 | 1009.5 |
| 20260503034543 | 42 | 192 | 1.0 | 1.0 | 0.00 | 0.24 | 0.24 | 63 | 1009.7 |
| 20260503034040 | 42 | 192 | 1.0 | 1.0 | 0.00 | 0.24 | 0.24 | 63 | 1009.5 |
| 20260503033537 | 42 | 187 | 1.0 | 2.0 | 0.00 | 0.24 | 0.24 | 63 | 1009.5 |
| 20260503033035 | 42 | 187 | 0.0 | 1.0 | 0.00 | 0.24 | 0.24 | 64 | 1009.6 |
| 20260503032533 | 42 | 187 | 0.0 | 0.0 | 0.00 | 0.24 | 0.24 | 63 | 1009.3 |
| 20260503032031 | 42 | 186 | 0.0 | 1.0 | 0.00 | 0.24 | 0.24 | 63 | 1009.5 |
| 20260503031529 | 42 | 154 | 1.0 | 2.0 | 0.00 | 0.24 | 0.24 | 62 | 1009.5 |
| 20260503031026 | 42 | 156 | 1.0 | 1.0 | 0.00 | 0.24 | 0.24 | 62 | 1009.3 |
| 20260503030521 | 42 | 166 | 0.0 | 1.0 | 0.00 | 0.24 | 0.24 | 63 | 1009.7 |
| 20260503030019 | 42 | 178 | 0.0 | 0.0 | 0.00 | 0.24 | 0.24 | 61 | 1009.5 |
| 20260503025515 | 42 | 187 | 1.0 | 1.0 | 0.00 | 0.24 | 0.24 | 60 | 1009.7 |
| 20260503025014 | 42 | 195 | 1.0 | 2.0 | 0.00 | 0.24 | 0.24 | 61 | 1009.8 |
| 20260503024509 | 42 | 196 | 2.0 | 3.0 | 0.00 | 0.24 | 0.24 | 61 | 1009.8 |
| 20260503024007 | 43 | 197 | 0.0 | 0.0 | 0.00 | 0.24 | 0.24 | 61 | 1009.7 |
| 20260503023503 | 43 | 189 | 1.0 | 1.0 | 0.00 | 0.24 | 0.24 | 59 | 1009.8 |
| 20260503023000 | 43 | 215 | 0.0 | 0.0 | 0.00 | 0.24 | 0.24 | 60 | 1009.7 |
| 20260503022456 | 43 | 215 | 1.0 | 1.0 | 0.00 | 0.24 | 0.24 | 60 | 1009.8 |
| 20260503021951 | 43 | 212 | 1.0 | 1.0 | 0.00 | 0.24 | 0.24 | 60 | 1009.8 |
| 20260503021448 | 43 | 212 | 0.0 | 1.0 | 0.00 | 0.24 | 0.24 | 59 | 1009.9 |
| 20260503020945 | 43 | 212 | 0.0 | 1.0 | 0.00 | 0.24 | 0.24 | 59 | 1009.9 |
| 20260503020443 | 43 | 212 | 0.0 | 0.0 | 0.00 | 0.24 | 0.24 | 60 | 1010.1 |
| 20260503015939 | 43 | 188 | 0.0 | 1.0 | 0.00 | 0.24 | 0.24 | 58 | 1009.9 |
| 20260503015436 | 43 | 187 | 0.0 | 0.0 | 0.00 | 0.24 | 0.24 | 60 | 1009.8 |
| 20260503014932 | 43 | 220 | 0.0 | 1.0 | 0.00 | 0.24 | 0.24 | 57 | 1009.8 |
| 20260503014429 | 43 | 220 | 1.0 | 1.0 | 0.00 | 0.24 | 0.24 | 59 | 1009.7 |
| 20260503013927 | 43 | 222 | 1.0 | 1.0 | 0.00 | 0.24 | 0.24 | 59 | 1009.7 |
| 20260503013424 | 44 | 94 | 0.0 | 0.0 | 0.00 | 0.24 | 0.24 | 58 | 1009.8 |
| 20260503012921 | 44 | 94 | 0.0 | 0.0 | 0.00 | 0.24 | 0.24 | 57 | 1009.9 |
| 20260503012420 | 44 | 150 | 1.0 | 1.0 | 0.00 | 0.24 | 0.24 | 55 | 1009.8 |
| 20260503011915 | 44 | 150 | 0.0 | 0.0 | 0.00 | 0.24 | 0.24 | 58 | 1009.8 |
| 20260503011412 | 45 | 150 | 0.0 | 0.0 | 0.00 | 0.24 | 0.24 | 54 | 1009.7 |
| 20260503010909 | 45 | 232 | 0.0 | 0.0 | 0.00 | 0.24 | 0.24 | 55 | 1009.6 |
| 20260503010406 | 45 | 131 | 0.0 | 1.0 | 0.00 | 0.24 | 0.24 | 53 | 1009.4 |
| 20260503005903 | 45 | 137 | 1.0 | 1.0 | 0.00 | 0.24 | 0.24 | 54 | 1009.4 |
| 20260503005401 | 45 | 138 | 1.0 | 1.0 | 0.00 | 0.24 | 0.24 | 52 | 1009.4 |
| 20260503004856 | 45 | 147 | 0.0 | 1.0 | 0.00 | 0.24 | 0.24 | 53 | 1009.4 |
| 20260503004354 | 45 | 118 | 0.0 | 0.0 | 0.00 | 0.24 | 0.24 | 54 | 1009.2 |
| 20260503003852 | 46 | 139 | 0.0 | 0.0 | 0.00 | 0.24 | 0.24 | 55 | 1009.4 |
| 20260503003348 | 46 | 106 | 0.0 | 1.0 | 0.00 | 0.24 | 0.24 | 50 | 1009.5 |
| 20260503002845 | 46 | 115 | 2.0 | 2.0 | 0.00 | 0.24 | 0.24 | 52 | 1009.3 |
| 20260503002343 | 46 | 167 | 0.0 | 1.0 | 0.00 | 0.24 | 0.24 | 51 | 1009.0 |
| 20260503001838 | 46 | 123 | 0.0 | 0.0 | 0.00 | 0.24 | 0.24 | 53 | 1009.0 |
| 20260503001335 | 46 | 138 | 0.0 | 0.0 | 0.00 | 0.24 | 0.24 | 52 | 1009.0 |
| 20260503000833 | 46 | 114 | 0.0 | 0.0 | 0.00 | 0.24 | 0.24 | 50 | 1008.9 |
| 20260503000330 | 47 | 113 | 1.0 | 1.0 | 0.00 | 0.24 | 0.24 | 50 | 1008.9 |
| 20260502235827 | 47 | 113 | 2.0 | 2.0 | 0.00 | 0.24 | 0.24 | 48 | 1008.8 |
| 20260502235324 | 47 | 126 | 0.0 | 0.0 | 0.00 | 0.24 | 0.24 | 50 | 1009.0 |
| 20260502234821 | 47 | 135 | 0.0 | 1.0 | 0.00 | 0.24 | 0.24 | 50 | 1008.9 |
| 20260502234318 | 47 | 135 | 0.0 | 0.0 | 0.00 | 0.24 | 0.24 | 51 | 1009.1 |
| 20260502233814 | 48 | 135 | 1.0 | 1.0 | 0.00 | 0.24 | 0.24 | 48 | 1008.9 |
| 20260502233311 | 48 | 128 | 1.0 | 1.0 | 0.00 | 0.24 | 0.24 | 48 | 1008.9 |
| 20260502232808 | 48 | 74 | 1.0 | 1.0 | 0.00 | 0.24 | 0.24 | 49 | 1008.8 |
| 20260502232305 | 48 | 180 | 0.0 | 0.0 | 0.00 | 0.24 | 0.24 | 49 | 1008.9 |
| 20260502231800 | 48 | 190 | 0.0 | 0.0 | 0.00 | 0.24 | 0.24 | 51 | 1009.0 |
| 20260502231258 | 49 | 153 | 0.0 | 1.0 | 0.00 | 0.24 | 0.24 | 48 | 1009.0 |
| 20260502230756 | 49 | 224 | 3.0 | 4.0 | 0.00 | 0.24 | 0.24 | 45 | 1008.9 |
| 20260502230254 | 49 | 193 | 2.0 | 2.0 | 0.00 | 0.24 | 0.24 | 44 | 1008.8 |
| 20260502225750 | 49 | 155 | 0.0 | 1.0 | 0.00 | 0.24 | 0.24 | 45 | 1008.8 |
| 20260502225247 | 49 | 160 | 0.0 | 1.0 | 0.00 | 0.24 | 0.24 | 48 | 1008.7 |
| 20260502224744 | 49 | 183 | 2.0 | 2.0 | 0.00 | 0.24 | 0.24 | 48 | 1008.6 |
| 20260502224240 | 50 | 184 | 1.0 | 1.0 | 0.00 | 0.24 | 0.24 | 45 | 1008.7 |
| 20260502223738 | 50 | 160 | 1.0 | 2.0 | 0.00 | 0.24 | 0.24 | 45 | 1008.6 |
| 20260502223236 | 50 | 190 | 1.0 | 2.0 | 0.00 | 0.24 | 0.24 | 46 | 1008.6 |
| 20260502222733 | 50 | 58 | 0.0 | 1.0 | 0.00 | 0.24 | 0.24 | 45 | 1008.8 |
| 20260502222230 | 51 | 200 | 1.0 | 1.0 | 0.00 | 0.24 | 0.24 | 44 | 1008.7 |
| 20260502221725 | 51 | 200 | 1.0 | 2.0 | 0.00 | 0.24 | 0.24 | 44 | 1008.6 |
| 20260502221223 | 51 | 188 | 2.0 | 2.0 | 0.00 | 0.24 | 0.24 | 43 | 1008.4 |
| 20260502220719 | 51 | 150 | 2.0 | 3.0 | 0.00 | 0.24 | 0.24 | 41 | 1008.5 |